Regional Weather Roundup
Issued by NWS

Home | Current Version | Previous Version | Text Only | Print | Product List | Glossary Off
Versions: 1 2 3 4 5 6 7 8 9 10 11 12 13 14 15 16 17 18 19 20 21 22 23 24 25 26 27 28 29 30 31 32 33 34 35 36 37 38 39 40 41 42 43 44 45 46 47 48 49 50

000
ASUS43 KIND 201159
RWRIN

WEATHER ROUNDUP FOR INDIANA
NATIONAL WEATHER SERVICE INDIANAPOLIS IN
800 AM EDT FRI APR 20 2018

NOTE: "FAIR" INDICATES FEW OR NO CLOUDS BELOW 12,000 FEET WITH NO
SIGNIFICANT WEATHER AND/OR OBSTRUCTIONS TO VISIBILITY.

* - STATION DOES NOT REPORT WEATHER SUCH AS PRECIPITATION OR FOG.

+ - STATION NOT QUALITY CONTROLLED BY THE NATIONAL WEATHER SERVICE.
    USE DATA WITH CAUTION...ESPECIALLY DEWPOINT AND RELATIVE
    HUMIDITY OBSERVATIONS.

INZ001>003-010>013-019-020-201300-
NORTHWEST INDIANA

CITY           SKY/WX    TMP DP  RH WIND       PRES   REMARKS
GARY /AIRPORT/ CLEAR     34  30  86 CALM      30.45F
KNOX *+        FAIR      27  27 100 CALM      30.49R
MONTICELLO +   FAIR      28  24  85 CALM      30.49R
6HR MIN TEMP:  25; 6HR MAX TEMP:  35;

RENSSELAER +   FAIR      30  25  80 CALM      30.50R

$$

LMZ046-743>745-201300-
SOUTHERN LAKE MICHIGAN

STATION/POSITION TIME  TEMP    WIND        PRES    WAVE
                       AIR SEA DIR/SP/G            HT
                 (UTC) (F)     (DEG/KT/KT) (MB)    (FT)
BURNS HARBOR     1140   39     350/  2/  3 1032.8R
MICHIGAN CITY    1130   35     200/  2/  3   N/A

$$

INZ004-005-014>016-021>024-201300-
NORTH CENTRAL INDIANA

CITY           SKY/WX    TMP DP  RH WIND       PRES   REMARKS
ELKHART        FAIR      27  25  93 CALM      30.48R
GOSHEN         FAIR      29  26  89 CALM      30.48R
6HR MIN TEMP:  26; 6HR MAX TEMP:  32;

PERU/GRISSOM   FAIR      30  29  98 NW5       30.48R WCI  25
6HR MIN TEMP:  26; 6HR MAX TEMP:  34;

ROCHESTER +    FAIR      32  28  86 CALM      30.50R
SOUTH BEND     FAIR      28  26  92 CALM      30.49R
6HR MIN TEMP:  23; 6HR MAX TEMP:  31;

WARSAW +       FAIR      30  27  86 CALM      30.48R

$$

INZ006>009-017-018-025>027-201300-
NORTHEAST INDIANA

CITY           SKY/WX    TMP DP  RH WIND       PRES   REMARKS
ANGOLA *+      FAIR      34  19  55 CALM      30.46R
FORT WAYNE     FAIR      33  24  69 N3        30.48R
6HR MIN TEMP:  29; 6HR MAX TEMP:  34;

KENDALLVILLE + FAIR      33  15  47 CALM      30.47R

$$

INZ028-029-035-036-043>045-051>053-201300-
WEST CENTRAL INDIANA

CITY           SKY/WX    TMP DP  RH WIND       PRES   REMARKS
GREENCASTLE +  FAIR      34  23  64 NE6       30.48R WCI  29
LAFAYETTE      FAIR      27  25  92 CALM      30.50R
6HR MIN TEMP:  24; 6HR MAX TEMP:  32;

TERRE HAUTE    FAIR      34  25  69 N5        30.49R WCI  30
6HR MIN TEMP:  28; 6HR MAX TEMP:  36;


$$

INZ030>032-037>040-046>048-054>057-064-065-201300-
CENTRAL INDIANA

CITY           SKY/WX    TMP DP  RH WIND       PRES   REMARKS
COLUMBUS       SUNNY     32 N/A N/A N6        30.47R WCI  26
INDIANAPOLIS   FAIR      35  22  58 N7        30.47R WCI  29
6HR MIN TEMP:  31; 6HR MAX TEMP:  36;

-EAGLE CREEK   FAIR      35  22  58 N6        30.47R WCI  30
6HR MIN TEMP:  32; 6HR MAX TEMP:  36;

KOKOMO +       FAIR      32  26  78 NW3       30.49R
6HR MIN TEMP:  28; 6HR MAX TEMP:  34;

MT COMFORT *+  FAIR      30  27  86 N3        30.47R
SHELBYVILLE    FAIR      33  24  69 N3        30.46R
6HR MIN TEMP:  30; 6HR MAX TEMP:  36;

ZIONSVILLE +   FAIR      31  25  78 N5        30.48R WCI  26
6HR MIN TEMP:  29; 6HR MAX TEMP:  32;


$$

INZ033-034-041-042-049-050-058-059-201300-
EAST CENTRAL INDIANA

CITY           SKY/WX    TMP DP  RH WIND       PRES   REMARKS
MUNCIE         FAIR      32  24  72 CALM      30.46R
6HR MIN TEMP:  28; 6HR MAX TEMP:  35;

RICHMOND +     FAIR      32  27  80 N6        30.45R WCI  26

$$

INZ060-061-067>069-081>083-085>088-201300-
SOUTHWEST INDIANA

CITY           SKY/WX    TMP DP  RH WIND       PRES   REMARKS
EVANSVILLE     FAIR      38  23  55 NE9       30.45R WCI  31
6HR MIN TEMP:  35; 6HR MAX TEMP:  44;

HUNTINGBURG +  FAIR      35  21  56 NE7       30.46R WCI  29
6HR MIN TEMP:  33; 6HR MAX TEMP:  41;


$$

INZ062-063-066-070>080-084-089>092-201300-
SOUTH CENTRAL AND SOUTHEAST INDIANA

CITY           SKY/WX    TMP DP  RH WIND       PRES   REMARKS
BLOOMINGTON    FAIR      36  19  50 NE7       30.46R WCI  30
6HR MIN TEMP:  32; 6HR MAX TEMP:  36;

SEYMOUR +      FAIR      36  23  60 N5        30.47R WCI  32

$$





USA.gov is the U.S. government's official web portal to all federal, state and local government web resources and services.